This is the latest recevied weather packets stored in our database for station/object WA1TYB-13. If no packets are shown the sender has not sent any weather packets the latest 10 day(s).
| Time | Temp. | Humidity | Pressure | Rain* | Wind** | Luminosity | Snow |
|---|---|---|---|---|---|---|---|
| 1777582503 | 15.56° C | 26% | 1023.1 hPa | 0 mm | - | 622 W/m² | - |
| 1777582196 | 15.56° C | 27% | 1023.2 hPa | 0 mm | - | 622 W/m² | - |
| 1777581895 | 16.11° C | 26% | 1023.2 hPa | 0 mm | - | 631 W/m² | - |
| 1777581590 | 16.11° C | 26% | 1023.1 hPa | 0 mm | - | 642 W/m² | - |
| 1777581285 | 16.11° C | 28% | 1023.3 hPa | 0 mm | - | 681 W/m² | - |
| 1777580980 | 15.56° C | 30% | 1023.3 hPa | 0 mm | - | 665 W/m² | - |
| 1777580680 | 15° C | 26% | 1023.4 hPa | 0 mm | - | 608 W/m² | - |
| 1777580376 | 15° C | 26% | 1023.4 hPa | 0 mm | - | 714 W/m² | - |
| 1777580073 | 15.56° C | 27% | 1023.5 hPa | 0 mm | - | 723 W/m² | - |
| 1777579769 | 15° C | 27% | 1023.5 hPa | 0 mm | - | 681 W/m² | - |
| 1777579466 | 15° C | 26% | 1023.5 hPa | 0 mm | - | 681 W/m² | - |
| 1777579162 | 15.56° C | 27% | 1023.3 hPa | 0 mm | - | 688 W/m² | - |
| 1777578857 | 15° C | 26% | 1023.3 hPa | 0 mm | - | 684 W/m² | - |
| 1777578553 | 15° C | 26% | 1023.5 hPa | 0 mm | - | 697 W/m² | - |
| 1777578248 | 15° C | 26% | 1023.7 hPa | 0 mm | - | 697 W/m² | - |
| 1777577944 | 13.89° C | 28% | 1023.6 hPa | 0 mm | - | 695 W/m² | - |
| 1777577639 | 15° C | 27% | 1023.6 hPa | 0 mm | - | 690 W/m² | - |
| 1777577337 | 14.44° C | 27% | 1023.7 hPa | 0 mm | - | 677 W/m² | - |
| 1777577032 | 14.44° C | 27% | 1024 hPa | 0 mm | - | 692 W/m² | - |
| 1777576730 | 14.44° C | 27% | 1023.7 hPa | 0 mm | - | 651 W/m² | - |
| 1777576428 | 14.44° C | 25% | 1024 hPa | 0 mm | - | 650 W/m² | - |
| 1777576126 | 14.44° C | 26% | 1024 hPa | 0 mm | - | 648 W/m² | - |
| 1777575821 | 13.89° C | 28% | 1024.1 hPa | 0 mm | - | 660 W/m² | - |
| 1777575518 | 13.89° C | 30% | 1024.3 hPa | 0 mm | - | 663 W/m² | - |
| 1777575213 | 13.89° C | 27% | 1024.4 hPa | 0 mm | - | 658 W/m² | - |
* Rain latest hour (hover to see other rain measurements)
** Current wind speed in m/s (hover to see current wind gust speed)